Other Public Products
Issued by NWS Grand Forks, ND

Home | Current Version | Previous Version | Graphics & Text | Print | Product List | Glossary On
Versions: 1 2 3 4 5 6 7 8 9 10 11 12 13 14 15 16 17 18 19 20 21 22 23 24 25 26 27 28 29 30 31 32 33 34 35 36 37 38 39 40 41 42 43 44 45 46 47 48 49 50
000
FPUS83 KFGF 290831
OPUFGF
PRAIRIE TO PINES WEATHER ROUNDUP
NATIONAL WEATHER SERVICE EASTERN NORTH DAKOTA/GRAND FORKS ND
300 AM CDT SUN MAR 29 2015

 **SATELLITE DATA USED TO AUGMENT SKY COVER AT AUTOMATED STATIONS**
 *****  WEATHER ACROSS EASTERN NORTH DAKOTA  *****

CITY           SKY/WX    TMP DP  RH WIND       PRES   REMARKS
GRAND FORKS    CLOUDY    42  37  82 SW10G20   29.43F
GRAND FORKS AF CLOUDY    45  39  81 SW13G21   29.42F
GRAND CITY NWS   N/A     41 N/A N/A S15         N/A
BUXTON           N/A     41  40  96 S12G24      N/A
DEVILS LAKE    CLOUDY    45  39  81 NW29G38   29.48R
FARGO          LGT RAIN  40  36  86 S18G25    29.50F
WAHPETON ARPT  CLOUDY    37  32  81 S14       29.57F
$$

 *****  WEATHER ACROSS CENTRAL AND WESTERN NORTH DAKOTA  *****

CITY           SKY/WX    TMP DP  RH WIND       PRES   REMARKS
JAMESTOWN      CLOUDY    48  41  76 W26G36    29.50R
BISMARCK       RAIN      45  42  89 W18G25    29.62R FOG
MINOT          LGT RAIN  40  36  86 NW25G39   29.65R
MINOT AFB      CLOUDY    40  40  99 NW31      29.65R
GARRISON         N/A     43  40  89 NW35G41   29.62R
WILLISTON      CLOUDY    40  35  83 N24G36    29.85R
DICKINSON      LGT RAIN  40  37  89 NW33G43   29.77R
HETTINGER      LGT RAIN  40  35  83 W36G45    29.77R
$$

 *****  OTHER OBSERVATIONS NORTHEAST NORTH DAKOTA  *****

CITY           SKY/WX    TMP DP  RH WIND       PRES   REMARKS
WALHALLA         N/A     41  41 100 N28G44    29.47R
LANGDON        NOT AVBL
CAVALIER       CLOUDY    43  39  87 NW26G33   29.43R
GRAFTON        NOT AVBL
CANDO          CLOUDY    39  37  93 NW26G40   29.51R
FORT TOTTEN      N/A     44  42  94 NW9       29.95S
ROLLA          LGT RAIN  37  37 100 NW25G37   29.55R
RUGBY            N/A     39  39 100 NW21      29.57R
 ***** THE ABOVE OBSERVATIONS ARE NON NWS ARE NOT QUALITY
        CONTROLLED AND MAY MIS-REPORT RAIN FOR SNOW...
$$

 *****  OTHER OBSERVATIONS SOUTHEAST NORTH DAKOTA *****

CITY           SKY/WX    TMP DP  RH WIND       PRES   REMARKS
COOPERSTOWN    NOT AVBL
VALLEY CITY    CLOUDY    46  46 100 W16G22    29.48S
OAKES            N/A     46  46 100 SW12      29.54F
GWINNER          N/A     45  45 100 SW16        N/A
SHEYENNE NWR     N/A     42  40  92 S12       29.95S
BUFFALO        NOT AVBL
WYNDMERE         N/A     41  39  93 S12         N/A
 ***** THE ABOVE OBSERVATIONS ARE NON NWS ARE NOT QUALITY
       CONTROLLED AND MAY MIS-REPORT RAIN FOR SNOW...
$$

  *****  WEATHER ACROSS NORTHERN MINNESOTA  *****

CITY           SKY/WX    TMP DP  RH WIND       PRES   REMARKS
FLAG ISLAND    RAIN      34  32  93 S13       29.43F WCI  25
WARROAD        RAIN      39  36  87 S9G17     29.44F
ROSEAU         DRIZZLE   37  34  87 S14       29.42F
HALLOCK        LGT RAIN  41  39  93 S13       29.40S
THF RVR FALLS  CLOUDY    39  36  87 S22G32    29.43F
HALSTAD          N/A     39  36  88 S23         N/A
FOSSTON        LGT RAIN  37  34  87 S26G33    29.49F
BAUDETTE       LGT RAIN  37  31  78 S13       29.45F
WASKISH        RAIN      37  32  81 S10G24    29.47F
CROOKSTON      CLOUDY    37  37 100 S28       29.46F
$$
  *****  WEATHER ACROSS CENTRAL AND WEST MINNESOTA  *****

CITY           SKY/WX    TMP DP  RH WIND       PRES   REMARKS
BEMIDJI        CLOUDY    39  27  63 S15G22    29.52F
PARK RAPIDS    CLOUDY    39  26  59 S16G24    29.59F
WADENA         CLOUDY    37  30  75 S16G22    29.61F
DETROIT LAKES  RAIN      37  34  87 S15       29.57F
MOORHEAD       HVY RAIN  39  37  93 SE24      29.50F
FERGUS FALLS   LGT RAIN  37  30  75 S16G23    29.61F
ELBOW LAKE     LGT RAIN  36  32  87 S18G25    29.60F
MORRIS MN      DRIZZLE   37  32  81 S13       29.62F
STAPLES        MOCLDY    36  28  75 S20       29.64F
WHEATON        CLOUDY    36  32  87 SE13      29.60F
$$
  *****  WEATHER ELSEWHERE ACROSS MINNESOTA  *****

CITY           SKY/WX    TMP DP  RH WIND       PRES   REMARKS
DULUTH         CLOUDY    35  18  49 SW12      29.79R
INTRNTL FALLS  CLOUDY    37  25  61 S10G22    29.53F
ELY            LGT RAIN  34  19  55 S17G24    29.65F WCI  23
CLOQUET        MOCLDY    36  18  48 S10G17    29.74F
BRAINERD       MOCLDY    35  24  64 S12G22    29.68F
HIBBING        CLOUDY    33  19  56 S10       29.69F WCI  25
ALEXANDRIA     CLOUDY    37  31  78 S21G26    29.67F
SAINT CLOUD    CLOUDY    38  24  57 S18G28    29.75F
MINNEAPOLIS    MOCLDY    37  22  54 S22G28    29.84F
$$

  *****  WEATHER ACROSS SOUTH DAKOTA  *****

CITY           SKY/WX    TMP DP  RH WIND       PRES   REMARKS
SIOUX FALLS    CLOUDY    44  32  62 S17G30    29.72R
BROOKINGS      NOT AVBL
WATERTOWN      CLOUDY    43  33  68 S16       29.61F
HURON          CLEAR     45  34  65 W9        29.68R
SISSETON         N/A     47  35  63 SW23G33   29.54F
ABERDEEN       CLOUDY    45  36  70 SW8       29.62S
MITCHELL       CLEAR     47  35  63 W5        29.69R
PIERRE         CLEAR     49  37  63 NW17      29.74S
MOBRIDGE       CLEAR     44  38  79 W10       29.66R
RAPID CITY     CLEAR     52  20  28 NW28G46   29.88R
$$

  *****  SOME WEATHER IN NEARBY STATES *****

CITY           SKY/WX    TMP DP  RH WIND       PRES   REMARKS
GLASGOW MT     PTCLDY    40  35  83 NW12      30.04R
GREAT FALLS MT CLEAR     39  27  62 SW15      30.16R
CHEYENNE WY    CLEAR     45  22  40 N17G28    30.09R
SCOTTSBLUFF NE CLEAR     49  21  33 W10       30.04R
OMAHA NE       MOCLDY    44  32  62 S20G28    29.86F
DES MOINES IA  PTCLDY    37  26  64 S16       29.97F
DAVENPORT IA   PTCLDY    31  18  58 S16       30.11F WCI  20
CHICAGO IL     MOCLDY    25  15  66 S8        30.20F WCI  16
EAU CLAIRE WI  PTCLDY    34  14  43 S13       29.91F WCI  25
LA CROSSE WI   MOCLDY    36  17  46 S16G24    30.00F
$$

  *****  SOME NATIONAL WEATHER *****

CITY           SKY/WX    TMP DP  RH WIND       PRES   REMARKS
LA GUARDIA NY  CLOUDY    27  10  49 NW13      30.15R WCI  16
RALEIGH NC     CLEAR     28  12  51 CALM      30.31S
ATLANTA GA     CLEAR     35  17  47 NW7       30.29S
NEW ORLEANS LA PTCLDY    56  50  80 SE5       30.22F
OKLAHOMA CITY  CLEAR     57  45  64 SE16      29.96F
ALBUQUERQUE NM CLEAR     59  14  17 SW10      30.17R
SALT LAKE CITY CLEAR     48  23  37 NW10      30.28R
LOS ANGELES CA FOG       57  57 100 SW3       30.05S VSB 1/2
BOISE ID       CLEAR     42  28  57 SE9       30.32S
SEATTLE WA     CLOUDY    51  41  68 S5        30.34F
$$

*** WEATHER ACROSS MANITOBA...SASKATCHEWAN AND ONTARIO ***
                ***ONTARIO***

CITY           SKY/WX    TMP DP  RH WIND       PRES   REMARKS
GERALDTON      PTCLDY    25  12  58 S9        29.70F WCI  15
THUNDER BAY    CLOUDY    36  18  48 SW13G21   29.75F
SIOUX LOOKOUT  LGTSLEET  36  25  64 S10G18    29.49
TORONTO        CLEAR     18  10  73 SW5       30.24F WCI  11
BIG TROUT LK   LGT SNOW  32  32 100 SW6       29.39F
PICKLE LAKE    NOT AVBL
DRYDEN         LGT RAIN  36  28  75 S16G28    29.47F
KENORA         LGT RAIN  34  32  93 S14G21    29.42F WCI  24
$$
                *** MANITOBA***

CITY           SKY/WX    TMP DP  RH WIND       PRES   REMARKS
BRANDON        MOCLDY    37  34  87 N21G29    29.61R
DAUPHIN        PTCLDY    34  34 100 W7        29.66R
ISLAND LAKE    LGT SNOW  32  32 100 N9        29.43S WCI  24
PILOT MOUND      N/A     39  36  87 N24G32      N/A
THE PAS        CLEAR     34  30  86 NW13G20   29.67R WCI  25
THOMPSON       PTCLDY    30  27  86 N10       29.56R WCI  21
WINNIPEG       CLOUDY    41  37  87 NW20G26   29.44R
LYNN LAKE      MOCLDY    28  25  86 W5        29.60R WCI  23
CHURCHILL      FLURRIES  10   7  85 N21G28    29.60R WCI  -9
GILLAM         CLOUDY    32  28  86 N15G22    29.47R WCI  22
$$
                ***SASKATCHEWAN***

CITY           SKY/WX    TMP DP  RH WIND       PRES   REMARKS
ESTEVAN        PTCLDY    36  34  93 NW17G25   29.81R
KINDERSLEY     PTCLDY    32  32 100 W10       29.99R WCI  24
LLOYDMINSTER   CLEAR     34  32  93 W13       29.92R WCI  25
PRINCE ALBERT  CLEAR     30  25  80 W8        29.84R WCI  23
REGINA         CLEAR     34  32  93 NW14      29.89R WCI  24


USA.gov is the U.S. government's official web portal to all federal, state and local government web resources and services.